AAL134 KLAX-EGLL

Flight info

Callsign AAL134
Flight time N/A
Altitude 33000
Route ORCKA5 BEALE DCT EEVUN DCT BCE DCT MBW DCT RAP DCT KP06A/N0485F350 DCT MISAX DCT PELEE DCT BROME DCT LOMSI/M084F360 DCT 55N050W 57N040W 58N030W 56N020W DCT PIKIL DCT SOVED/N0482F370 DCT LUTOV DCT KELLY L10 WAL UY53 NUGRA
Aircraft B77W/H-SDE1E2E3FGHIJ2J3J4J5M1RWXY/LB1D1

Departure

Time 2026-04-22 02:34
Airport Los Angeles International Airport (KLAX)

Arrival

Time N/A
Airport London Heathrow Airport (EGLL)
Time Latitude Longitude Altitude Speed Heading
2026-04-22 01:45 33.94162 -118.40762 138 ft 0 kts 83°
2026-04-22 02:18 33.94162 -118.40763 138 ft 0 kts 83°
2026-04-22 02:20 33.94162 -118.40765 138 ft 1 kts 83°
2026-04-22 02:20 33.94161 -118.40783 138 ft 2 kts 83°
2026-04-22 02:20 33.94159 -118.40801 138 ft 2 kts 83°
2026-04-22 02:21 33.94158 -118.40819 137 ft 2 kts 101°
2026-04-22 02:21 33.94163 -118.40836 137 ft 2 kts 118°
2026-04-22 02:21 33.94171 -118.40851 137 ft 2 kts 133°
2026-04-22 02:21 33.94172 -118.40852 137 ft 2 kts 136°
2026-04-22 02:22 33.94150 -118.40842 137 ft 2 kts 176°
2026-04-22 02:22 33.94147 -118.40842 137 ft 0 kts 177°
2026-04-22 02:25 33.94142 -118.40841 137 ft 3 kts 176°
2026-04-22 02:25 33.94080 -118.40833 138 ft 14 kts 172°
2026-04-22 02:26 33.93978 -118.40816 138 ft 13 kts 172°
2026-04-22 02:26 33.93900 -118.40783 139 ft 10 kts 138°
2026-04-22 02:26 33.93852 -118.40744 141 ft 7 kts 151°
2026-04-22 02:26 33.93818 -118.40691 141 ft 10 kts 103°
2026-04-22 02:27 33.93821 -118.40576 139 ft 16 kts 83°
2026-04-22 02:27 33.93834 -118.40444 136 ft 13 kts 84°
2026-04-22 02:27 33.93845 -118.40328 133 ft 14 kts 83°
2026-04-22 02:27 33.93857 -118.40209 131 ft 14 kts 82°
2026-04-22 02:28 33.93869 -118.40093 129 ft 13 kts 83°
2026-04-22 02:28 33.93881 -118.39979 127 ft 13 kts 83°
2026-04-22 02:28 33.93892 -118.39872 126 ft 12 kts 83°
2026-04-22 02:28 33.93903 -118.39771 126 ft 11 kts 83°
2026-04-22 02:29 33.93912 -118.39677 123 ft 12 kts 84°
2026-04-22 02:29 33.93923 -118.39569 121 ft 13 kts 83°
2026-04-22 02:29 33.93934 -118.39457 119 ft 13 kts 83°
2026-04-22 02:29 33.93946 -118.39341 118 ft 14 kts 83°
2026-04-22 02:30 33.93958 -118.39223 117 ft 14 kts 83°
2026-04-22 02:30 33.93970 -118.39105 116 ft 14 kts 83°
2026-04-22 02:30 33.93982 -118.38982 115 ft 14 kts 83°
2026-04-22 02:30 33.93995 -118.38860 114 ft 15 kts 83°
2026-04-22 02:31 33.94009 -118.38732 113 ft 15 kts 83°
2026-04-22 02:31 33.94021 -118.38606 113 ft 15 kts 83°
2026-04-22 02:31 33.94035 -118.38472 112 ft 16 kts 83°
2026-04-22 02:31 33.94049 -118.38329 111 ft 18 kts 83°
2026-04-22 02:32 33.94065 -118.38180 110 ft 17 kts 83°
2026-04-22 02:32 33.94073 -118.38055 109 ft 12 kts 103°
2026-04-22 02:32 33.94016 -118.38007 109 ft 10 kts 190°
2026-04-22 02:32 33.93980 -118.38064 109 ft 7 kts 261°
2026-04-22 02:33 33.93979 -118.38074 109 ft 2 kts 263°
2026-04-22 02:33 33.93963 -118.38226 110 ft 47 kts 263°
2026-04-22 02:33 33.93901 -118.38903 115 ft 114 kts 262°
2026-04-22 02:33 33.93775 -118.40110 182 ft 167 kts 263°
2026-04-22 02:34 33.93619 -118.41577 584 ft 189 kts 262°
2026-04-22 02:34 33.93428 -118.43148 1528 ft 187 kts 261°
2026-04-22 02:34 33.93217 -118.44623 2471 ft 186 kts 262°
2026-04-22 02:34 33.93028 -118.46232 3145 ft 198 kts 264°
2026-04-22 02:35 33.92839 -118.47952 3756 ft 218 kts 264°
2026-04-22 02:35 33.92651 -118.49796 4573 ft 228 kts 264°
2026-04-22 02:35 33.92469 -118.51739 5345 ft 242 kts 263°
2026-04-22 02:35 33.92231 -118.53857 6074 ft 258 kts 260°
2026-04-22 02:36 33.91779 -118.55846 7457 ft 242 kts 251°
2026-04-22 02:36 33.91058 -118.57681 8146 ft 248 kts 236°
2026-04-22 02:36 33.89725 -118.59148 8542 ft 267 kts 211°
2026-04-22 02:36 33.87900 -118.59757 9315 ft 276 kts 186°
2026-04-22 02:37 33.85990 -118.59325 9985 ft 291 kts 161°
2026-04-22 02:37 33.84275 -118.57757 10333 ft 321 kts 131°
2026-04-22 02:37 33.83294 -118.55187 10549 ft 351 kts 102°
2026-04-22 02:37 33.83382 -118.52152 10771 ft 374 kts 74°
2026-04-22 02:38 33.84588 -118.49323 11046 ft 388 kts 47°
2026-04-22 02:38 33.86630 -118.47059 11306 ft 402 kts 33°
2026-04-22 02:38 33.89055 -118.45295 11704 ft 411 kts 23°
2026-04-22 02:38 33.91572 -118.43502 12380 ft 420 kts 32°
2026-04-22 02:39 33.93799 -118.41180 13114 ft 428 kts 44°
2026-04-22 02:39 33.95721 -118.38393 13676 ft 439 kts 51°
2026-04-22 02:39 33.97549 -118.35370 14287 ft 446 kts 52°
2026-04-22 02:39 33.99370 -118.32281 14854 ft 451 kts 52°
2026-04-22 02:40 34.01167 -118.29190 14973 ft 452 kts 53°
2026-04-22 02:40 34.02977 -118.26055 14981 ft 451 kts 53°
2026-04-22 02:40 34.04763 -118.22945 14988 ft 452 kts 53°
2026-04-22 02:40 34.06560 -118.19803 14992 ft 452 kts 53°
2026-04-22 02:41 34.08353 -118.16655 14990 ft 451 kts 54°
2026-04-22 02:41 34.10130 -118.13526 14990 ft 452 kts 53°
2026-04-22 02:41 34.11910 -118.10387 14990 ft 451 kts 53°
2026-04-22 02:41 34.13702 -118.07217 14994 ft 452 kts 54°
2026-04-22 02:42 34.15517 -118.04005 15263 ft 464 kts 53°
2026-04-22 02:42 34.17354 -118.00746 16205 ft 461 kts 54°
2026-04-22 02:42 34.19145 -117.97564 17022 ft 460 kts 54°
2026-04-22 02:42 34.20983 -117.94296 17550 ft 467 kts 53°
2026-04-22 02:43 34.22838 -117.90997 18015 ft 476 kts 54°
2026-04-22 02:43 34.24734 -117.87620 18596 ft 481 kts 54°
2026-04-22 02:43 34.26638 -117.84223 19239 ft 484 kts 54°
2026-04-22 02:43 34.28559 -117.80792 19869 ft 487 kts 54°
2026-04-22 02:44 34.30471 -117.77375 20441 ft 491 kts 54°
2026-04-22 02:44 34.32417 -117.73892 20971 ft 496 kts 53°
2026-04-22 02:44 34.34342 -117.70322 21514 ft 501 kts 58°
2026-04-22 02:44 34.35881 -117.66496 22038 ft 506 kts 66°
2026-04-22 02:45 34.37229 -117.62453 22530 ft 511 kts 68°
2026-04-22 02:45 34.38543 -117.58428 23051 ft 515 kts 68°
2026-04-22 02:45 34.39880 -117.54323 23546 ft 519 kts 68°
2026-04-22 02:45 34.41214 -117.50223 24043 ft 522 kts 68°
2026-04-22 02:46 34.42571 -117.46049 24510 ft 526 kts 68°
2026-04-22 02:46 34.43915 -117.41910 24968 ft 530 kts 68°
2026-04-22 02:46 34.45289 -117.37675 25412 ft 534 kts 68°
2026-04-22 02:46 34.46672 -117.33406 25896 ft 537 kts 68°
2026-04-22 02:47 34.48050 -117.29147 26315 ft 541 kts 68°
2026-04-22 02:47 34.49429 -117.24879 26731 ft 545 kts 69°
2026-04-22 02:47 34.50836 -117.20520 27180 ft 548 kts 68°
2026-04-22 02:47 34.52240 -117.16163 27622 ft 551 kts 69°
2026-04-22 02:48 34.53796 -117.11898 27998 ft 554 kts 61°
2026-04-22 02:48 34.55851 -117.07856 28406 ft 556 kts 52°
2026-04-22 02:48 34.58268 -117.04144 28794 ft 558 kts 48°
2026-04-22 02:48 34.60791 -117.00472 29240 ft 561 kts 47°
2026-04-22 02:49 34.63334 -116.96781 29753 ft 561 kts 48°
2026-04-22 02:49 34.65871 -116.93089 30379 ft 559 kts 47°
2026-04-22 02:49 34.68364 -116.89456 31014 ft 556 kts 48°
2026-04-22 02:49 34.70884 -116.85777 31568 ft 555 kts 48°
2026-04-22 02:50 34.73383 -116.82124 32018 ft 555 kts 48°
2026-04-22 02:50 34.75888 -116.78456 32474 ft 555 kts 47°
2026-04-22 02:50 34.78373 -116.74814 32940 ft 554 kts 48°
2026-04-22 02:51 34.83384 -116.67455 33029 ft 554 kts 48°
2026-04-22 02:51 34.88572 -116.60092 33005 ft 554 kts 45°
2026-04-22 02:52 34.93931 -116.52998 32985 ft 552 kts 45°
2026-04-22 02:52 34.99224 -116.45957 32979 ft 553 kts 45°
2026-04-22 02:53 35.04517 -116.38881 32974 ft 552 kts 45°
2026-04-22 02:53 35.09719 -116.31902 32958 ft 553 kts 46°
2026-04-22 02:54 35.14970 -116.24836 32951 ft 555 kts 46°
2026-04-22 02:54 35.20235 -116.17732 32951 ft 556 kts 46°
2026-04-22 02:55 35.25510 -116.10599 32953 ft 557 kts 47°
2026-04-22 02:55 35.30807 -116.03419 32949 ft 556 kts 46°
2026-04-22 02:56 35.36058 -115.96287 32956 ft 557 kts 47°
2026-04-22 02:56 35.41322 -115.89121 32969 ft 556 kts 47°
2026-04-22 02:57 35.46533 -115.82012 32974 ft 554 kts 46°
2026-04-22 02:57 35.51746 -115.74886 32982 ft 555 kts 46°
2026-04-22 02:58 35.56997 -115.67693 32986 ft 555 kts 46°
2026-04-22 02:58 35.62210 -115.60535 32994 ft 556 kts 46°
2026-04-22 02:59 35.67463 -115.53309 32991 ft 558 kts 46°
2026-04-22 02:59 35.72700 -115.46087 33002 ft 557 kts 46°
2026-04-22 03:00 35.77918 -115.38877 32971 ft 556 kts 46°
2026-04-22 03:00 35.83112 -115.31682 32961 ft 559 kts 47°
2026-04-22 03:01 35.88359 -115.24398 32948 ft 556 kts 47°
2026-04-22 03:01 35.93578 -115.17139 32926 ft 557 kts 47°
2026-04-22 03:02 35.98752 -115.09927 32931 ft 556 kts 47°
2026-04-22 03:02 36.03970 -115.02638 32917 ft 557 kts 47°
2026-04-22 03:03 36.09196 -114.95321 32915 ft 558 kts 47°
2026-04-22 03:03 36.14415 -114.87997 32908 ft 560 kts 47°
2026-04-22 03:04 36.19653 -114.80679 32911 ft 558 kts 45°
2026-04-22 03:04 36.25131 -114.73753 32921 ft 557 kts 44°
2026-04-22 03:05 36.30651 -114.66799 32920 ft 560 kts 44°
2026-04-22 03:05 36.36188 -114.59783 32913 ft 557 kts 45°
2026-04-22 03:06 36.41743 -114.52716 32913 ft 561 kts 45°
2026-04-22 03:06 36.47275 -114.45654 32904 ft 557 kts 45°
2026-04-22 03:07 36.52764 -114.38625 32910 ft 556 kts 45°
2026-04-22 03:07 36.58260 -114.31572 32896 ft 558 kts 46°
2026-04-22 03:08 36.63725 -114.24541 32886 ft 557 kts 46°
2026-04-22 03:08 36.69185 -114.17500 32884 ft 557 kts 46°
2026-04-22 03:09 36.74634 -114.10457 32884 ft 558 kts 46°
2026-04-22 03:09 36.80071 -114.03415 32882 ft 557 kts 46°
2026-04-22 03:10 36.85543 -113.96311 32884 ft 556 kts 46°
2026-04-22 03:10 36.90987 -113.89228 32926 ft 558 kts 46°
2026-04-22 03:11 36.96424 -113.82138 32958 ft 555 kts 46°
2026-04-22 03:11 37.01872 -113.75019 32965 ft 558 kts 47°
2026-04-22 03:12 37.06579 -113.67255 32974 ft 552 kts 61°
2026-04-22 03:12 37.12481 -113.54618 32967 ft 550 kts 62°
2026-04-22 03:13 37.16387 -113.46177 32984 ft 553 kts 63°
2026-04-22 03:13 37.20272 -113.37758 32993 ft 550 kts 62°
2026-04-22 03:14 37.24123 -113.29387 33009 ft 551 kts 63°
2026-04-22 03:14 37.28006 -113.20926 33018 ft 550 kts 63°
2026-04-22 03:15 37.31872 -113.12479 33058 ft 549 kts 63°
2026-04-22 03:15 37.35712 -113.04067 33080 ft 549 kts 63°
2026-04-22 03:16 37.39558 -112.95618 33100 ft 549 kts 64°
2026-04-22 03:16 37.43403 -112.87148 33108 ft 550 kts 63°
2026-04-22 03:17 37.47198 -112.78771 33130 ft 549 kts 63°
2026-04-22 03:17 37.51054 -112.70232 33147 ft 550 kts 63°
2026-04-22 03:18 37.54866 -112.61772 33142 ft 547 kts 63°
2026-04-22 03:18 37.58647 -112.53355 33149 ft 548 kts 63°
2026-04-22 03:19 37.62445 -112.44882 33157 ft 548 kts 63°
2026-04-22 03:19 37.66229 -112.36416 33165 ft 545 kts 63°
2026-04-22 03:20 37.70422 -112.28306 33153 ft 550 kts 51°
2026-04-22 03:20 37.75654 -112.21038 33148 ft 550 kts 49°
2026-04-22 03:21 37.80898 -112.13846 33162 ft 550 kts 49°
2026-04-22 03:21 37.86153 -112.06606 33171 ft 549 kts 49°
2026-04-22 03:22 37.91387 -111.99371 33196 ft 549 kts 49°
2026-04-22 03:22 37.96592 -111.92152 33200 ft 550 kts 49°
2026-04-22 03:23 38.01802 -111.84907 33200 ft 548 kts 49°
2026-04-22 03:23 38.06988 -111.77679 33200 ft 547 kts 48°
2026-04-22 03:24 38.12141 -111.70479 33181 ft 544 kts 49°
2026-04-22 03:24 38.17310 -111.63239 33180 ft 546 kts 49°
2026-04-22 03:25 38.22426 -111.56058 33196 ft 542 kts 49°
2026-04-22 03:25 38.27593 -111.48788 33196 ft 545 kts 49°
2026-04-22 03:26 38.32697 -111.41589 33177 ft 541 kts 49°
2026-04-22 03:26 38.37841 -111.34318 33154 ft 543 kts 49°
2026-04-22 03:27 38.43006 -111.27000 33121 ft 543 kts 50°
2026-04-22 03:27 38.48094 -111.19776 33099 ft 541 kts 49°
2026-04-22 03:28 38.53199 -111.12510 33093 ft 541 kts 49°
2026-04-22 03:28 38.58326 -111.05196 33095 ft 541 kts 49°
2026-04-22 03:29 38.63398 -110.97944 33112 ft 540 kts 49°
2026-04-22 03:29 38.68441 -110.90716 33108 ft 542 kts 49°
2026-04-22 03:30 38.73524 -110.83415 33120 ft 540 kts 50°
2026-04-22 03:30 38.78579 -110.76138 33123 ft 541 kts 49°
2026-04-22 03:31 38.83676 -110.68781 33090 ft 540 kts 49°
2026-04-22 03:31 38.88711 -110.61498 33089 ft 541 kts 49°
2026-04-22 03:32 38.93780 -110.54148 33073 ft 540 kts 50°
2026-04-22 03:32 38.98825 -110.46817 33061 ft 540 kts 49°
2026-04-22 03:33 39.03868 -110.39472 33059 ft 540 kts 49°
2026-04-22 03:33 39.08902 -110.32121 33049 ft 541 kts 50°
2026-04-22 03:34 39.13913 -110.24788 33047 ft 538 kts 50°
2026-04-22 03:34 39.18955 -110.17392 33064 ft 540 kts 50°
2026-04-22 03:35 39.23989 -110.09990 33070 ft 539 kts 50°
2026-04-22 03:35 39.29002 -110.02602 33075 ft 537 kts 50°
2026-04-22 03:36 39.33991 -109.95231 33076 ft 537 kts 50°
2026-04-22 03:36 39.38924 -109.87927 33102 ft 537 kts 50°
2026-04-22 03:37 39.43891 -109.80554 33120 ft 535 kts 50°
2026-04-22 03:37 39.48810 -109.73236 33130 ft 533 kts 50°
2026-04-22 03:38 39.53713 -109.65923 33132 ft 534 kts 50°
2026-04-22 03:38 39.58652 -109.58541 33120 ft 533 kts 50°
2026-04-22 03:39 39.63588 -109.51144 33118 ft 531 kts 50°
2026-04-22 03:39 39.68507 -109.43756 33105 ft 533 kts 50°
2026-04-22 03:40 39.73376 -109.36427 33108 ft 529 kts 50°
2026-04-22 03:40 39.78271 -109.29040 33106 ft 530 kts 51°
2026-04-22 03:41 39.83145 -109.21667 33103 ft 531 kts 51°
2026-04-22 03:41 39.88050 -109.14229 33105 ft 530 kts 51°
2026-04-22 03:42 39.92885 -109.06881 33095 ft 529 kts 51°
2026-04-22 03:42 39.97712 -108.99527 33096 ft 530 kts 51°
2026-04-22 03:43 40.02571 -108.92107 33095 ft 529 kts 51°
2026-04-22 03:43 40.07380 -108.84745 33109 ft 527 kts 51°
2026-04-22 03:44 40.12191 -108.77362 33109 ft 528 kts 51°
2026-04-22 03:44 40.16996 -108.69974 33118 ft 527 kts 51°
2026-04-22 03:45 40.21827 -108.62525 33125 ft 528 kts 51°
2026-04-22 03:45 40.26653 -108.55066 33119 ft 526 kts 51°
2026-04-22 03:46 40.31472 -108.47600 33117 ft 526 kts 51°
2026-04-22 03:46 40.36254 -108.40173 33118 ft 526 kts 50°
2026-04-22 03:47 40.41101 -108.32627 33119 ft 526 kts 51°
2026-04-22 03:47 40.45873 -108.25179 33120 ft 525 kts 51°
2026-04-22 03:48 40.50652 -108.17703 33123 ft 525 kts 51°
2026-04-22 03:48 40.55432 -108.10206 33124 ft 525 kts 51°
2026-04-22 03:49 40.60193 -108.02722 33119 ft 525 kts 51°
2026-04-22 03:49 40.64951 -107.95225 33127 ft 524 kts 51°
2026-04-22 03:50 40.69704 -107.87715 33135 ft 525 kts 51°
2026-04-22 03:50 40.74408 -107.80267 33176 ft 523 kts 51°
2026-04-22 03:51 40.79134 -107.72765 33178 ft 524 kts 51°
2026-04-22 03:51 40.83851 -107.65258 33174 ft 523 kts 51°
2026-04-22 03:52 40.88554 -107.57755 33167 ft 524 kts 51°
2026-04-22 03:52 40.93265 -107.50221 33155 ft 522 kts 51°
2026-04-22 03:53 40.97961 -107.42693 33131 ft 524 kts 51°
2026-04-22 03:53 41.02640 -107.35174 33148 ft 522 kts 51°
2026-04-22 03:54 41.07299 -107.27667 33190 ft 522 kts 51°
2026-04-22 03:54 41.11943 -107.20167 33226 ft 521 kts 51°
2026-04-22 03:55 41.16576 -107.12666 33246 ft 521 kts 51°
2026-04-22 03:55 41.21218 -107.05132 33295 ft 521 kts 51°
2026-04-22 03:56 41.25897 -106.97520 33277 ft 521 kts 51°
2026-04-22 03:56 41.30593 -106.89859 33237 ft 521 kts 51°
2026-04-22 03:57 41.35222 -106.82289 33184 ft 519 kts 51°
2026-04-22 03:57 41.39890 -106.74637 33142 ft 522 kts 51°
2026-04-22 03:58 41.44497 -106.67065 33160 ft 520 kts 51°
2026-04-22 03:58 41.49089 -106.59499 33206 ft 519 kts 51°
2026-04-22 03:59 41.53684 -106.51910 33239 ft 518 kts 51°
2026-04-22 03:59 41.58270 -106.44316 33241 ft 519 kts 51°
2026-04-22 04:00 41.62859 -106.36697 33239 ft 519 kts 51°
2026-04-22 04:00 41.67480 -106.29008 33234 ft 518 kts 52°
2026-04-22 04:01 41.72065 -106.21358 33216 ft 518 kts 52°
2026-04-22 04:01 41.76605 -106.13764 33199 ft 517 kts 52°
2026-04-22 04:02 41.81173 -106.06104 33188 ft 516 kts 52°
2026-04-22 04:02 41.85686 -105.98563 33179 ft 518 kts 49°
2026-04-22 04:03 41.90848 -105.91651 33165 ft 518 kts 44°
2026-04-22 04:03 41.96073 -105.84824 33165 ft 519 kts 44°
2026-04-22 04:04 42.01253 -105.77964 33170 ft 518 kts 44°
2026-04-22 04:04 42.06437 -105.71043 33176 ft 517 kts 44°
2026-04-22 04:05 42.11595 -105.64117 33170 ft 515 kts 44°
2026-04-22 04:05 42.16732 -105.57190 33164 ft 516 kts 44°
2026-04-22 04:06 42.21828 -105.50294 33165 ft 516 kts 44°
2026-04-22 04:06 42.26909 -105.43398 33150 ft 517 kts 45°
2026-04-22 04:07 42.32033 -105.36424 33118 ft 516 kts 45°
2026-04-22 04:07 42.37126 -105.29475 33089 ft 516 kts 45°
2026-04-22 04:08 42.42226 -105.22498 33069 ft 516 kts 45°
2026-04-22 04:08 42.47304 -105.15533 33054 ft 514 kts 45°
2026-04-22 04:09 42.52381 -105.08554 33045 ft 515 kts 45°
2026-04-22 04:09 42.57436 -105.01588 33037 ft 515 kts 45°
2026-04-22 04:10 42.62530 -104.94550 33039 ft 515 kts 45°
2026-04-22 04:10 42.67583 -104.87550 33050 ft 516 kts 45°
2026-04-22 04:11 42.72668 -104.80490 33052 ft 516 kts 45°
2026-04-22 04:11 42.77729 -104.73446 33063 ft 516 kts 45°
2026-04-22 04:12 42.82827 -104.66331 33055 ft 514 kts 45°
2026-04-22 04:12 42.87894 -104.59243 33044 ft 515 kts 45°
2026-04-22 04:13 42.92976 -104.52116 33034 ft 515 kts 45°
2026-04-22 04:13 42.98056 -104.44973 33021 ft 514 kts 45°
2026-04-22 04:14 43.03133 -104.37817 33020 ft 516 kts 45°
2026-04-22 04:14 43.08168 -104.30702 33006 ft 515 kts 45°
2026-04-22 04:15 43.13225 -104.23537 33004 ft 514 kts 45°
2026-04-22 04:15 43.18240 -104.16415 32986 ft 515 kts 45°
2026-04-22 04:16 43.25824 -104.05608 32969 ft 516 kts 45°
2026-04-22 04:17 43.30850 -103.98425 32967 ft 514 kts 45°
2026-04-22 04:17 43.35861 -103.91244 32966 ft 516 kts 45°
2026-04-22 04:18 43.40884 -103.84028 32965 ft 515 kts 45°
2026-04-22 04:18 43.45909 -103.76790 32978 ft 515 kts 45°
2026-04-22 04:19 43.50927 -103.69545 33023 ft 522 kts 45°
2026-04-22 04:19 43.55954 -103.62265 33016 ft 515 kts 45°
2026-04-22 04:20 43.60973 -103.54981 33018 ft 516 kts 45°
2026-04-22 04:20 43.65959 -103.47724 33007 ft 516 kts 45°
2026-04-22 04:21 43.70918 -103.40488 33017 ft 514 kts 44°
2026-04-22 04:21 43.75933 -103.33153 32991 ft 516 kts 45°
2026-04-22 04:22 43.80917 -103.25843 32949 ft 516 kts 45°
2026-04-22 04:22 43.85894 -103.18524 32935 ft 516 kts 45°
2026-04-22 04:23 43.90850 -103.11217 32914 ft 515 kts 45°
2026-04-22 04:23 43.95850 -103.03826 32890 ft 515 kts 45°
2026-04-22 04:24 44.00843 -102.96585 32878 ft 513 kts 43°
2026-04-22 04:24 44.05911 -102.89451 32871 ft 514 kts 43°
2026-04-22 04:25 44.10979 -102.82285 32876 ft 513 kts 43°
2026-04-22 04:25 44.16025 -102.75124 32880 ft 513 kts 43°
2026-04-22 04:26 44.21080 -102.67927 32878 ft 513 kts 43°
2026-04-22 04:26 44.26136 -102.60707 32882 ft 512 kts 43°
2026-04-22 04:27 44.31137 -102.53545 32882 ft 513 kts 43°
2026-04-22 04:27 44.36185 -102.46295 32885 ft 511 kts 43°
2026-04-22 04:28 44.41210 -102.39061 32891 ft 512 kts 43°
2026-04-22 04:28 44.46213 -102.31839 32880 ft 512 kts 43°
2026-04-22 04:29 44.51223 -102.24587 32869 ft 513 kts 43°
2026-04-22 04:29 44.56278 -102.17250 32868 ft 512 kts 43°
2026-04-22 04:30 44.61309 -102.09928 32858 ft 511 kts 43°
2026-04-22 04:30 44.66318 -102.02619 32857 ft 512 kts 43°
2026-04-22 04:31 44.71298 -101.95334 32863 ft 510 kts 43°
2026-04-22 04:31 44.76264 -101.88050 32864 ft 511 kts 43°
2026-04-22 04:32 44.81235 -101.80739 32872 ft 511 kts 43°
2026-04-22 04:32 44.86197 -101.73420 32877 ft 509 kts 43°
2026-04-22 04:33 44.91109 -101.66157 32880 ft 510 kts 43°
2026-04-22 04:33 44.96075 -101.58794 32884 ft 508 kts 43°
2026-04-22 04:34 45.01027 -101.51434 32887 ft 510 kts 43°
2026-04-22 04:34 45.05998 -101.44025 32893 ft 508 kts 43°
2026-04-22 04:35 45.10969 -101.36595 32897 ft 509 kts 43°
2026-04-22 04:35 45.15921 -101.29174 32889 ft 509 kts 43°
2026-04-22 04:36 45.20842 -101.21780 32886 ft 508 kts 43°
2026-04-22 04:36 45.25774 -101.14347 32880 ft 508 kts 43°
2026-04-22 04:37 45.30693 -101.06915 32876 ft 508 kts 43°
2026-04-22 04:37 45.35573 -100.99522 32876 ft 507 kts 43°
2026-04-22 04:38 45.40499 -100.92039 32872 ft 507 kts 43°
2026-04-22 04:38 45.45374 -100.84615 32875 ft 506 kts 43°
2026-04-22 04:39 45.50248 -100.77169 32871 ft 507 kts 43°
2026-04-22 04:39 45.55086 -100.69759 32872 ft 506 kts 43°
2026-04-22 04:40 45.59965 -100.62266 32867 ft 506 kts 42°
2026-04-22 04:40 45.64831 -100.54775 32866 ft 506 kts 42°
2026-04-22 04:41 45.69689 -100.47272 32862 ft 504 kts 42°
2026-04-22 04:41 45.74484 -100.39848 32873 ft 505 kts 42°
2026-04-22 04:42 45.79321 -100.32338 32870 ft 504 kts 43°
2026-04-22 04:42 45.84148 -100.24822 32873 ft 504 kts 43°
2026-04-22 04:43 45.88953 -100.17320 32865 ft 504 kts 43°
2026-04-22 04:43 45.93771 -100.09779 32861 ft 503 kts 43°
2026-04-22 04:44 45.98566 -100.02251 32860 ft 504 kts 43°
2026-04-22 04:44 46.03083 -99.94242 32864 ft 506 kts 47°
2026-04-22 04:45 46.07482 -99.86031 33472 ft 511 kts 47°
2026-04-22 04:45 46.09677 -99.81918 34212 ft 504 kts 47°
2026-04-22 04:45 46.11820 -99.77898 34790 ft 502 kts 47°
2026-04-22 04:46 46.16165 -99.69739 34879 ft 505 kts 47°
2026-04-22 04:46 46.20476 -99.61613 34885 ft 505 kts 47°
2026-04-22 04:47 46.24882 -99.53285 34885 ft 503 kts 47°
2026-04-22 04:47 46.29288 -99.44935 34886 ft 504 kts 47°
2026-04-22 04:48 46.33609 -99.36719 34897 ft 505 kts 47°
2026-04-22 04:48 46.37900 -99.28535 34879 ft 505 kts 48°
2026-04-22 04:49 46.42172 -99.20363 34875 ft 501 kts 48°
2026-04-22 04:49 46.46470 -99.12121 34879 ft 505 kts 48°
2026-04-22 04:50 46.50736 -99.03912 34884 ft 504 kts 48°
2026-04-22 04:50 46.55039 -98.95609 34879 ft 503 kts 48°
2026-04-22 04:51 46.59277 -98.87408 34864 ft 502 kts 48°
2026-04-22 04:51 46.63564 -98.79085 34873 ft 502 kts 48°
2026-04-22 04:52 46.67841 -98.70758 34866 ft 501 kts 48°
2026-04-22 04:52 46.72096 -98.62450 34848 ft 504 kts 48°
2026-04-22 04:53 46.76360 -98.54098 34869 ft 500 kts 48°
2026-04-22 04:53 46.80590 -98.45786 34871 ft 500 kts 48°
2026-04-22 04:54 46.84826 -98.37443 34875 ft 502 kts 48°
2026-04-22 04:54 46.89005 -98.29182 34862 ft 500 kts 49°
2026-04-22 04:55 46.93217 -98.20834 34862 ft 502 kts 49°
2026-04-22 04:55 46.97375 -98.12566 34872 ft 499 kts 49°
2026-04-22 04:56 47.01560 -98.04221 34861 ft 500 kts 49°
2026-04-22 04:56 47.05759 -97.95824 34865 ft 502 kts 49°
2026-04-22 04:57 47.09942 -97.87430 34869 ft 501 kts 48°
2026-04-22 04:57 47.14120 -97.79023 34875 ft 500 kts 49°
2026-04-22 04:58 47.18271 -97.70643 34883 ft 501 kts 49°
2026-04-22 04:58 47.22427 -97.62227 34887 ft 500 kts 49°
2026-04-22 04:59 47.26555 -97.53844 34886 ft 499 kts 48°
2026-04-22 04:59 47.30684 -97.45434 34884 ft 501 kts 48°
2026-04-22 05:00 47.34795 -97.37033 34885 ft 499 kts 48°
2026-04-22 05:00 47.38880 -97.28664 34876 ft 501 kts 49°
2026-04-22 05:01 47.43021 -97.20149 34868 ft 501 kts 49°
2026-04-22 05:01 47.47145 -97.11645 34866 ft 499 kts 49°
2026-04-22 05:02 47.51214 -97.03229 34867 ft 500 kts 49°
2026-04-22 05:02 47.55307 -96.94736 34873 ft 500 kts 49°
2026-04-22 05:03 47.59395 -96.86228 34871 ft 500 kts 49°
2026-04-22 05:03 47.63453 -96.77756 34884 ft 501 kts 49°
2026-04-22 05:04 47.67559 -96.69155 34885 ft 500 kts 48°
2026-04-22 05:04 47.71653 -96.60555 34888 ft 499 kts 49°
2026-04-22 05:05 47.75747 -96.51927 34890 ft 499 kts 48°
2026-04-22 05:05 47.79793 -96.43375 34894 ft 500 kts 48°
2026-04-22 05:06 47.83828 -96.34818 34904 ft 500 kts 49°
2026-04-22 05:06 47.87911 -96.26135 34895 ft 501 kts 49°
2026-04-22 05:07 47.91929 -96.17557 34907 ft 500 kts 49°
2026-04-22 05:07 47.95960 -96.08928 34906 ft 500 kts 49°
2026-04-22 05:08 47.99990 -96.00272 34907 ft 498 kts 49°
2026-04-22 05:08 48.03976 -95.91685 34914 ft 499 kts 49°
2026-04-22 05:09 48.07967 -95.83057 34917 ft 499 kts 49°
2026-04-22 05:09 48.11991 -95.74335 34935 ft 501 kts 49°
2026-04-22 05:10 48.16011 -95.65589 34940 ft 500 kts 49°
2026-04-22 05:10 48.20015 -95.56851 34944 ft 499 kts 48°
2026-04-22 05:11 48.24039 -95.48042 34949 ft 501 kts 48°
2026-04-22 05:11 48.28019 -95.39301 34948 ft 500 kts 48°
2026-04-22 05:12 48.32010 -95.30507 34946 ft 500 kts 49°
2026-04-22 05:12 48.35980 -95.21730 34949 ft 501 kts 49°
2026-04-22 05:13 48.39928 -95.12972 34958 ft 499 kts 48°
2026-04-22 05:13 48.43899 -95.04140 34959 ft 503 kts 48°
2026-04-22 05:14 48.47856 -94.95305 34962 ft 500 kts 48°
2026-04-22 05:14 48.51797 -94.86479 34961 ft 501 kts 48°